Theta_e
317 317 318 318 319 320 321 323 325 326 327 328 329 330 330 331 331 331 331 330 330 332 333 333 333 332 332 332 332 332 332 332 332 332 332 331 331 331 332 332 332 332 332 332 332 332 333 333 332 332 331 330 331 332 332 332 332 332 331 331 331 331 331 331 330 330 329 328 328 328 327 326 325 323 321 322 317 310 312 317 315 310 308 310 306
315 316 317 317 318 319 320 322 323 325 326 327 328 329 330 330 330 330 331 330 331 331 332 333 333 332 332 332 331 332 332 332 331 331 332 331 331 330 331 332 332 332 332 332 332 331 331 332 332 332 331 330 330 331 332 332 332 332 331 331 331 331 331 330 330 330 328 327 327 327 327 326 325 323 322 322 319 315 313 315 315 311 310 312 312
313 314 315 316 316 317 319 320 321 323 324 326 327 328 329 329 330 330 330 330 331 331 331 332 332 332 332 332 332 332 332 332 331 331 331 331 331 330 331 332 332 332 333 331 331 331 331 331 332 331 331 330 330 331 332 331 331 331 331 332 331 331 331 330 329 329 328 326 325 325 325 326 325 324 322 321 320 318 314 314 314 312 310 312 313
312 312 313 314 315 316 316 317 318 320 322 324 325 327 328 328 329 329 330 330 330 331 331 331 331 331 331 331 332 332 332 332 331 331 331 331 331 331 331 332 332 332 332 331 331 331 331 332 332 331 331 331 330 330 331 331 331 331 331 331 331 331 331 330 329 329 328 326 325 324 324 326 326 324 321 321 320 318 315 314 313 311 310 310 311
311 312 312 313 313 314 314 315 316 317 318 320 322 325 326 328 328 329 329 330 330 330 330 331 331 331 331 331 332 332 332 332 332 331 331 331 332 332 332 332 332 330 331 331 331 330 331 332 332 331 331 331 329 329 331 332 332 332 332 332 331 331 331 331 330 329 328 327 325 323 323 325 326 323 320 319 319 318 316 315 314 312 311 310 309
311 311 311 312 312 313 313 313 315 315 317 318 320 322 324 326 327 328 328 329 329 329 330 330 330 331 331 331 331 331 331 332 332 332 331 331 332 332 332 332 331 330 331 332 331 330 331 332 331 331 331 331 330 330 332 332 333 332 332 332 331 330 331 331 330 329 328 327 325 322 321 323 324 321 318 317 317 316 316 316 316 314 312 311 310
311 311 311 311 311 312 312 313 314 315 316 317 319 321 323 325 326 327 327 328 328 329 329 330 330 330 330 330 331 332 331 331 332 332 332 332 332 332 333 332 330 330 332 332 331 331 332 332 331 330 330 331 330 331 332 333 333 333 332 332 331 330 331 330 329 329 328 327 326 323 322 321 321 319 317 316 316 316 316 316 316 315 313 313 312
311 311 311 311 311 311 312 312 313 314 315 316 318 320 323 324 325 326 327 327 327 328 329 329 330 330 330 330 330 331 331 331 331 332 332 332 332 332 332 332 331 331 331 331 331 331 331 332 331 330 330 330 330 330 331 332 332 332 332 332 331 330 331 330 328 328 328 326 325 325 323 320 320 319 317 316 317 316 316 316 316 316 315 314 313
311 311 310 311 311 311 311 312 312 313 314 315 316 318 319 322 323 325 326 326 327 327 328 328 329 330 330 330 330 330 331 331 330 331 331 331 332 332 332 331 332 331 330 330 330 330 331 331 331 330 330 329 329 329 328 328 331 332 331 331 331 330 330 330 328 328 328 326 325 325 325 322 320 320 318 317 318 317 317 317 316 316 316 316 315
310 310 310 310 311 311 311 311 312 312 313 314 314 315 316 317 319 320 322 324 325 326 327 327 328 329 329 329 329 329 330 330 330 330 331 331 331 332 331 331 331 331 330 329 329 329 330 331 331 331 330 329 329 329 328 328 329 330 331 332 332 330 330 330 329 328 327 327 326 325 325 323 322 321 320 320 320 320 319 318 317 316 316 316 315
310 310 309 310 310 311 310 311 311 311 311 312 312 313 313 314 314 315 317 319 320 322 324 326 327 327 328 328 328 329 329 329 329 330 330 330 330 331 331 331 331 330 329 329 328 329 329 330 330 330 329 328 328 328 329 329 329 329 330 331 331 331 330 329 328 328 328 327 326 325 324 324 323 322 322 322 322 321 320 320 318 316 315 315 314
309 309 309 309 310 310 310 310 310 310 310 310 310 311 311 311 311 312 313 314 315 317 319 322 324 326 327 327 328 328 328 328 328 329 330 330 330 331 331 330 331 330 329 328 329 328 328 328 329 329 329 328 327 327 328 329 329 329 329 329 329 330 330 329 327 328 328 327 327 327 325 325 324 324 323 321 320 319 319 319 317 316 316 314 314
308 309 309 308 309 309 309 309 309 310 310 309 309 309 309 308 309 309 310 310 311 312 313 316 319 322 324 325 326 327 327 327 327 329 329 329 329 330 331 330 330 329 328 328 328 328 329 328 328 328 328 328 327 327 327 329 329 328 327 327 327 328 329 328 328 328 327 326 326 325 324 324 324 322 320 318 317 316 316 317 316 316 316 315 315
307 308 308 308 308 308 308 309 309 309 309 309 309 308 308 307 307 307 308 308 309 309 310 311 313 316 319 320 321 323 325 326 326 327 328 328 328 329 330 330 329 329 329 328 328 329 329 329 328 327 326 327 327 326 326 327 327 327 326 326 325 325 326 327 327 327 326 325 325 324 322 324 324 321 319 317 315 313 312 314 315 316 317 317 318
306 307 307 307 307 307 307 308 308 308 308 308 308 307 307 306 306 306 306 306 306 307 307 308 309 311 313 314 315 317 320 322 324 324 325 327 327 327 329 330 329 329 329 329 329 329 330 329 328 327 326 326 327 326 325 326 326 325 324 323 322 323 324 324 324 325 324 324 325 325 323 323 323 321 319 317 315 313 312 314 317 317 318 319 318
306 306 307 307 307 306 306 307 307 307 307 307 307 307 306 306 305 305 305 305 305 305 305 305 306 307 309 310 311 312 313 316 319 322 324 325 325 326 328 328 327 327 327 327 327 328 328 327 327 326 326 326 326 325 324 325 325 325 323 319 319 320 322 322 322 323 323 323 324 324 322 321 320 319 318 317 316 314 314 316 318 318 318 319 320
305 306 306 307 306 306 306 306 306 306 306 306 306 306 306 305 305 304 304 303 303 303 303 303 303 304 305 306 308 308 309 311 315 317 320 322 322 323 324 324 323 323 324 325 325 324 324 325 325 324 325 326 326 324 323 323 322 322 320 317 316 316 316 317 318 319 320 320 320 319 318 316 315 314 313 315 315 315 316 318 319 319 320 321 321
304 305 306 306 306 305 305 305 306 306 306 305 305 305 305 304 304 304 304 303 302 302 302 302 301 302 302 303 305 306 307 309 311 313 316 318 319 320 321 320 320 321 321 321 322 322 323 324 324 324 325 325 325 324 323 321 321 320 318 316 314 312 311 312 314 314 315 316 315 315 314 314 314 313 313 314 316 317 319 320 319 319 320 321 321
304 304 305 305 305 305 305 305 305 305 305 305 304 304 304 303 303 304 304 304 303 303 302 301 301 301 300 301 304 305 307 308 310 312 315 317 317 318 318 318 318 319 318 318 317 318 320 322 322 323 323 323 323 323 321 320 319 319 317 316 314 312 311 311 311 311 311 312 311 312 313 313 314 315 314 315 316 317 318 318 316 317 318 318 318
303 304 305 305 304 304 304 304 304 304 304 304 303 303 303 302 302 303 303 303 303 303 302 302 301 300 300 300 301 304 307 308 309 312 314 315 315 315 315 316 316 315 315 314 313 313 315 318 320 321 321 321 321 320 319 318 318 318 317 317 315 313 312 310 310 310 310 310 309 309 309 309 310 310 310 310 311 311 311 312 312 313 314 313 313
303 303 304 304 304 304 304 304 304 304 304 304 304 303 303 302 302 302 302 302 302 303 303 302 301 300 300 299 300 302 306 307 308 311 313 313 313 312 312 312 313 313 312 311 310 310 310 313 316 318 319 318 317 316 316 316 317 317 317 316 315 313 311 309 308 308 308 308 307 307 306 306 305 305 304 304 304 304 304 304 304 307 310 311 310
302 303 303 304 304 303 303 303 303 303 304 304 304 304 303 303 302 302 301 301 301 302 302 302 301 300 300 299 300 302 304 304 306 309 310 309 310 311 311 310 309 310 309 308 308 309 309 309 310 312 314 314 313 313 313 314 316 316 316 315 313 312 310 308 307 307 306 306 306 306 305 305 304 304 303 303 302 302 302 302 301 302 305 307 309
302 302 302 303 303 302 301 301 301 302 302 303 303 304 304 303 303 302 301 301 301 301 301 301 300 300 300 300 300 300 301 302 303 305 306 307 308 310 311 309 309 309 309 306 304 305 306 307 307 307 309 310 310 311 312 313 314 314 313 312 311 309 308 306 306 306 306 305 305 305 305 304 304 304 304 304 303 303 304 304 303 302 302 303 304
302 302 302 302 302 302 301 300 300 301 301 302 302 303 303 303 303 302 301 301 301 300 300 300 300 300 299 299 299 299 300 301 302 303 304 306 306 307 307 307 308 310 308 305 302 303 304 305 305 306 307 309 310 310 310 310 310 310 309 307 306 306 306 306 306 305 305 305 304 304 303 303 303 303 303 303 303 303 304 304 304 303 302 302 302
302 302 302 302 301 301 301 300 300 300 301 301 301 301 301 301 301 301 301 301 300 300 300 300 300 300 299 299 298 298 300 301 301 302 303 303 304 304 305 305 306 307 306 304 302 302 302 303 304 305 306 307 308 308 307 306 306 305 305 305 305 306 307 307 307 307 306 305 304 303 303 303 303 303 302 302 303 304 304 303 303 303 303 302 302
302 302 302 302 302 301 301 300 300 300 300 300 300 300 300 300 299 300 300 300 300 299 299 300 300 300 300 300 299 298 299 300 300 300 301 301 302 302 303 303 304 305 304 303 302 302 303 303 304 304 304 305 305 305 304 304 303 303 304 304 304 305 306 306 306 306 305 304 303 302 302 301 301 301 302 302 303 304 304 304 304 304 303 303 303
302 302 302 302 302 301 301 301 300 300 299 299 299 299 300 299 298 298 298 299 299 299 299 299 299 299 299 300 299 298 298 299 299 300 300 301 301 301 301 301 302 302 302 302 302 302 302 303 303 303 303 303 303 302 302 302 302 302 302 302 303 303 303 304 303 303 303 302 301 301 301 301 301 301 301 302 302 303 304 304 304 304 304 304 303
301 301 302 301 301 301 301 301 301 300 300 299 298 298 298 298 298 297 296 296 297 298 298 298 298 298 298 299 298 298 297 297 298 299 300 300 300 301 301 301 301 301 301 301 301 302 301 301 302 302 302 301 301 301 300 300 300 300 300 300 300 300 300 300 300 300 300 300 300 300 300 301 301 301 301 301 301 302 302 303 303 303 303 303 303
300 301 301 301 301 301 301 301 301 301 301 300 299 298 297 297 298 297 296 295 296 296 297 297 297 297 297 297 297 297 297 296 296 297 298 298 298 298 298 299 299 299 300 300 301 301 301 300 300 300 299 299 299 299 298 298 298 297 298 298 298 298 299 299 299 299 300 300 300 300 301 301 301 300 301 301 301 301 301 302 302 302 302 302 302
300 300 300 300 301 301 301 301 301 301 301 301 300 299 298 297 297 297 296 296 296 296 296 296 296 297 296 296 296 296 296 296 296 297 297 296 296 296 296 296 297 297 298 299 299 300 300 299 298 297 297 297 297 296 296 296 296 296 296 296 297 297 297 298 298 298 298 298 299 299 299 300 300 300 300 300 300 300 300 301 301 301 301 301 301
299 300 300 300 300 301 301 301 301 301 301 301 300 300 299 299 298 297 297 296 296 296 296 296 296 297 297 297 296 296 296 296 296 296 296 296 296 295 295 295 295 295 296 296 297 297 297 297 296 296 296 295 294 294 294 295 295 295 295 295 295 296 296 296 296 296 296 297 297 298 298 299 299 299 299 299 299 299 299 299 300 300 300 300 300
299 299 299 299 300 300 300 300 301 300 300 301 300 300 300 300 299 298 297 297 297 297 297 297 297 297 297 297 297 297 297 297 296 296 296 296 296 295 295 295 295 295 295 295 295 294 295 295 294 294 295 294 294 294 294 294 294 294 294 294 294 295 295 295 295 295 295 296 296 296 297 297 297 297 297 298 298 298 298 298 298 298 298 298 298
298 298 298 299 299 299 299 300 300 300 300 300 300 300 300 300 300 299 298 298 298 297 297 297 297 298 298 298 298 297 297 297 297 297 297 297 296 296 296 295 295 295 295 295 294 294 293 293 293 293 293 293 293 293 293 293 293 293 293 293 293 294 294 294 294 294 294 295 295 295 295 295 296 296 296 296 297 297 297 297 298 298 297 297 297
298 298 298 298 298 298 298 298 299 299 300 300 300 300 300 300 299 299 299 299 299 298 298 297 297 297 297 297 297 297 297 297 297 297 297 297 297 297 296 296 295 295 295 294 294 293 293 293 292 292 292 292 292 292 292 292 293 293 293 293 293 293 293 293 293 293 293 294 294 294 295 295 295 295 296 296 296 296 296 297 297 297 297 297 297
298 298 298 298 298 298 297 297 297 298 298 299 299 299 299 299 299 299 299 299 299 299 298 298 297 296 296 296 296 296 296 297 297 297 297 297 296 296 296 295 295 294 294 294 293 293 292 292 292 292 292 292 292 292 292 293 293 292 292 292 292 293 293 293 293 293 293 293 293 294 294 294 295 295 295 295 295 296 296 296 296 296 296 296 296
298 298 298 298 298 298 297 297 297 297 298 299 299 299 299 299 299 299 299 298 298 298 298 298 298 296 295 295 294 294 295 295 296 296 296 296 297 296 296 295 295 294 294 293 293 292 292 292 292 292 292 292 292 292 292 292 292 292 292 292 292 292 293 292 292 293 293 293 293 293 293 294 294 294 294 295 295 295 295 295 295 295 295 295 295
298 298 298 298 298 298 297 297 297 297 297 297 297 298 298 298 298 299 298 298 298 298 298 298 298 298 297 296 295 294 294 294 294 295 295 296 297 297 296 295 295 294 294 293 293 293 292 292 292 292 292 291 292 292 292 292 292 292 292 292 292 292 292 292 292 292 292 292 293 293 293 293 294 294 294 294 294 295 295 294 294 294 294 294 295
298 298 297 297 298 298 298 297 297 297 297 297 297 297 297 298 298 298 298 298 298 298 298 298 298 297 297 296 295 295 295 295 295 295 295 295 296 296 296 295 295 294 293 293 293 292 292 292 292 292 292 291 292 292 292 292 292 291 291 291 291 291 291 291 292 292 292 292 293 293 293 293 293 293 294 294 294 294 294 294 294 294 294 294 294
298 298 297 297 297 298 297 297 297 297 297 297 297 296 296 297 297 298 298 298 298 298 298 298 298 297 296 296 295 295 295 295 295 295 295 295 296 296 295 295 294 294 293 293 293 292 292 292 292 291 291 291 291 292 292 292 291 291 291 291 291 291 291 292 292 292 292 293 293 293 293 293 293 293 293 294 294 294 293 293 294 294 294 294 294
298 298 298 297 297 298 297 297 297 297 297 297 297 296 296 296 297 297 297 298 298 297 297 297 297 297 296 294 293 294 295 295 295 295 295 295 295 296 295 294 294 294 293 293 293 292 292 292 291 291 291 291 291 291 291 291 291 291 291 291 291 291 292 292 292 292 292 292 292 292 292 293 293 293 293 293 293 293 293 293 293 293 293 293 293
298 298 298 298 298 298 298 298 297 297 297 297 297 296 296 296 296 297 297 297 297 297 297 297 297 296 295 293 292 293 294 295 295 295 295 295 295 295 295 294 294 294 294 293 293 293 292 292 292 291 291 291 291 291 291 291 291 291 291 291 291 291 291 291 291 291 291 292 292 292 292 292 292 292 292 292 292 292 292 292 292 292 292 292 293
298 298 298 298 298 298 298 298 298 297 297 297 296 296 296 296 296 296 296 297 297 297 297 297 297 295 294 293 293 293 294 295 295 294 294 294 294 294 294 294 294 294 294 293 293 293 293 293 292 292 291 291 291 291 291 291 292 291 291 291 291 291 291 291 291 291 291 291 291 291 291 291 291 292 292 292 292 292 292 292 292 292 292 292 292
298 298 297 298 298 298 298 298 298 297 297 297 297 297 297 296 296 296 296 296 296 297 297 297 296 296 295 294 294 294 294 294 295 294 294 294 294 293 293 293 294 294 293 293 293 293 293 292 292 292 291 291 291 291 291 291 291 291 291 291 291 291 291 291 291 291 291 291 291 291 291 291 292 292 291 292 292 292 292 292 291 292 292 292 292
297 296 296 297 298 298 298 298 298 297 297 297 297 297 297 297 296 296 296 296 296 296 296 296 296 296 296 295 295 295 294 294 295 295 294 294 294 293 293 293 293 293 293 293 293 293 292 292 292 292 292 291 291 291 291 291 291 291 291 291 291 291 291 291 291 291 291 291 291 291 291 291 292 292 292 291 292 292 292 291 291 291 291 292 292
295 296 296 297 298 298 298 298 297 297 297 297 297 297 297 296 296 296 296 296 296 296 296 296 296 296 296 295 295 294 294 294 294 294 294 294 294 293 293 293 293 293 293 293 293 293 292 292 292 291 291 291 291 291 291 290 290 291 291 291 291 291 291 290 290 290 290 291 291 291 291 292 292 292 292 292 292 292 292 292 291 291 291 292 292
295 295 296 297 298 298 297 297 297 297 297 297 297 297 297 296 296 296 296 296 296 296 296 296 296 296 296 295 295 294 294 294 294 294 294 294 294 294 293 293 293 293 293 293 292 292 292 292 292 291 291 291 291 291 290 290 290 290 290 290 290 290 290 290 290 289 289 290 291 291 291 292 292 291 291 291 292 292 291 291 291 291 290 291 291
295 295 296 297 298 297 297 296 296 296 297 297 297 297 296 296 295 296 296 296 296 296 296 296 296 296 296 295 295 295 294 294 294 293 294 294 294 294 293 293 293 293 293 292 292 292 292 292 292 291 291 291 290 290 290 290 290 290 290 290 290 290 289 289 290 289 289 290 290 291 291 291 292 291 291 291 291 291 291 291 291 291 290 291 291
294 295 295 296 297 297 297 296 296 296 296 296 296 296 296 296 296 296 296 296 296 296 296 295 295 296 296 296 295 295 294 294 294 293 293 293 294 294 293 293 293 293 292 292 292 292 291 291 291 290 290 289 289 289 289 289 289 289 289 289 289 290 289 289 289 289 289 289 290 290 290 291 291 291 291 291 291 291 291 291 291 291 291 291 290
295 294 294 294 295 295 296 296 296 296 296 296 295 295 295 295 296 296 296 296 296 296 296 296 295 295 295 295 295 295 295 294 294 294 293 293 293 293 293 292 292 292 292 292 291 291 290 290 289 289 289 289 288 289 289 289 289 289 288 288 289 289 289 289 289 289 289 289 290 290 290 290 290 291 290 290 290 290 290 291 291 291 291 291 291
295 295 294 294 293 294 294 294 294 295 295 295 295 295 295 295 296 296 296 296 296 296 296 296 295 295 295 295 295 295 295 294 294 294 293 293 293 293 293 292 292 292 292 291 290 290 289 289 288 288 289 289 289 289 289 288 288 288 287 287 288 289 289 289 289 289 289 289 289 290 290 290 290 290 290 290 290 290 290 290 290 290 291 291 291
295 295 294 294 293 294 294 294 293 294 294 294 294 295 295 295 296 296 296 296 296 296 296 295 295 295 295 295 295 295 295 294 294 294 293 293 293 293 293 292 292 292 291 290 290 289 289 290 289 289 289 289 288 289 288 288 288 287 287 287 288 288 288 289 289 289 289 289 289 290 290 290 290 290 290 290 289 289 289 288 289 290 290 291 291
Wind_Speed
16 16 15 15 15 15 14 13 12 11 11 9 10 12 13 13 14 16 17 17 16 15 14 14 15 15 15 14 15 17 18 21 23 20 17 18 20 20 19 22 22 21 19 17 17 18 17 17 20 21 21 21 20 18 18 18 17 16 15 14 14 13 11 11 9 8 8 8 11 12 14 16 15 15 15 12 13 16 14 11 12 14 12 11 12
17 17 16 16 16 16 15 14 13 13 13 11 10 12 12 13 14 14 16 16 15 14 14 13 14 16 16 15 16 16 16 20 22 20 18 19 21 21 20 21 22 20 19 19 18 18 18 17 18 21 22 22 21 19 18 18 17 17 16 15 14 14 13 13 11 10 10 9 10 11 13 15 15 15 16 14 13 15 14 12 12 13 12 11 11
19 18 18 18 18 17 16 16 15 14 14 13 12 11 12 13 13 14 15 14 14 14 14 14 15 17 16 16 18 18 17 18 19 19 20 20 21 22 21 22 22 21 20 21 20 19 18 18 18 22 23 22 21 20 18 19 18 17 17 15 14 14 14 14 13 11 12 12 12 11 13 15 15 15 16 14 13 14 14 14 13 12 12 12 11
20 20 20 20 20 18 18 18 17 16 15 14 13 13 13 13 13 14 14 13 14 15 14 13 15 17 18 18 19 19 19 20 20 20 21 21 21 21 21 22 23 23 21 21 21 20 18 18 19 22 23 21 21 20 18 18 18 17 17 15 14 14 13 14 13 12 12 13 13 11 12 15 15 14 15 14 13 14 14 13 13 13 13 13 12
20 21 21 22 21 20 20 19 18 17 16 15 15 15 15 14 13 13 13 14 15 16 16 14 14 16 18 18 19 19 20 21 21 21 21 20 21 22 21 22 24 24 22 21 21 20 19 19 21 23 23 21 22 20 18 18 18 17 16 15 15 14 13 13 13 13 12 12 12 10 11 15 16 14 14 14 14 14 13 13 12 13 13 12 12
19 19 20 21 21 21 21 20 18 18 17 16 16 15 14 14 14 13 13 14 16 17 17 16 16 16 17 18 19 19 20 21 21 22 22 21 21 21 21 23 23 22 20 19 20 20 19 19 23 25 22 20 22 20 18 19 19 17 17 16 15 14 14 14 13 13 12 12 13 11 10 13 15 14 14 14 14 13 13 13 12 12 12 12 12
17 18 18 19 20 20 21 20 19 19 18 17 16 15 14 13 14 13 13 14 15 16 17 17 17 16 17 18 19 19 19 20 20 21 21 21 21 20 20 22 22 20 19 18 19 19 18 20 24 24 21 20 23 21 19 19 18 18 17 16 16 15 15 14 14 14 12 9 11 13 12 12 14 14 14 15 13 13 13 13 13 12 12 13 13
17 18 18 19 20 20 20 20 19 19 19 18 17 16 15 15 14 13 13 13 14 15 16 17 18 16 16 18 19 19 20 21 21 21 21 21 20 20 20 20 19 19 19 18 18 18 18 20 23 23 20 21 24 22 20 20 18 17 17 16 16 16 15 15 15 14 13 11 10 12 13 13 13 13 14 15 14 14 14 13 13 13 13 13 13
17 18 19 20 21 21 20 20 20 20 20 19 18 18 18 17 15 13 12 12 13 14 16 17 18 18 17 17 18 19 21 22 23 23 22 21 20 20 21 20 18 18 19 19 17 16 17 19 21 21 19 19 21 18 16 19 18 17 17 17 17 17 16 16 14 14 15 15 14 14 14 15 15 14 14 14 15 14 13 13 12 11 12 12 12
18 19 20 21 22 21 20 20 21 21 20 20 19 19 19 18 18 17 16 15 15 15 16 17 18 18 19 19 19 20 22 22 24 25 24 23 22 20 21 20 19 19 19 19 16 15 17 18 17 18 19 17 17 15 14 18 18 16 15 16 16 17 17 16 16 15 15 15 16 18 18 16 16 15 14 13 13 12 12 13 12 11 10 10 10
18 19 20 21 22 22 21 21 22 21 21 21 20 19 19 18 18 18 17 17 18 17 16 17 17 18 20 21 20 21 23 24 24 25 25 25 23 21 21 21 20 21 20 18 16 15 17 17 13 14 17 15 14 15 15 17 19 16 14 15 16 16 15 15 16 16 16 17 19 20 19 17 15 14 13 11 11 11 10 11 11 12 11 10 10
18 19 20 21 22 22 22 22 22 22 22 22 21 20 19 18 18 18 17 16 17 16 15 16 16 16 19 22 22 23 25 26 25 26 27 28 24 20 19 19 20 21 19 16 15 15 16 18 15 13 14 12 12 15 17 18 19 17 16 16 17 17 15 13 12 13 12 12 13 14 15 14 14 14 11 10 9 8 8 9 10 11 11 11 10
18 19 20 21 22 22 22 22 22 21 22 22 22 21 20 19 19 18 17 16 15 13 13 14 15 15 16 19 21 22 23 23 23 26 28 30 27 20 17 18 19 19 17 16 15 14 14 17 16 13 13 13 12 13 16 18 18 16 16 15 14 16 17 14 12 11 9 8 5 10 12 9 10 11 11 10 9 7 5 4 6 9 10 11 9
19 19 20 21 22 22 22 22 22 21 21 21 22 22 21 20 19 18 17 16 15 14 12 12 12 12 13 14 14 15 17 18 18 21 27 31 29 22 16 16 18 18 17 17 16 15 15 16 16 15 15 16 14 12 13 15 15 13 11 9 8 10 12 12 12 13 12 9 6 9 12 9 7 9 10 8 8 8 7 3 5 8 9 8 6
20 20 21 21 22 22 22 22 22 21 21 20 21 21 21 20 19 18 16 15 15 14 12 11 10 10 10 10 11 11 15 18 19 22 27 29 27 22 18 17 18 19 18 17 16 15 16 16 16 17 17 16 15 14 13 13 12 11 10 8 8 9 10 9 9 9 10 10 7 9 14 13 9 9 8 8 7 8 9 6 6 8 9 8 7
20 21 21 22 22 22 22 22 22 21 20 20 20 21 20 20 19 17 16 15 14 14 13 13 11 9 7 5 5 7 10 14 19 23 25 25 22 21 20 19 19 21 21 19 17 15 14 15 16 17 17 15 15 16 16 14 13 13 11 9 8 10 10 10 11 10 10 12 11 11 14 14 12 10 9 9 9 7 7 8 9 11 12 10 10
20 21 21 22 21 21 21 21 20 20 20 20 20 20 20 19 18 17 16 15 14 14 14 15 14 13 10 8 5 2 2 5 11 17 20 19 17 17 18 19 20 20 20 20 20 18 16 16 16 16 16 16 16 17 18 16 15 14 13 11 10 8 7 9 11 11 12 12 11 11 11 11 10 10 9 11 14 11 9 10 11 11 11 9 9
20 21 21 21 20 20 20 20 19 20 20 19 19 19 19 18 17 16 16 15 14 14 14 15 18 17 15 14 14 12 9 6 4 8 13 14 13 11 14 17 20 19 18 18 19 19 18 17 16 15 16 16 16 18 18 16 16 16 15 15 14 12 12 15 16 14 13 13 12 12 13 12 13 14 14 15 18 15 9 8 7 6 8 7 6
20 20 20 20 20 20 19 19 19 19 19 19 18 18 18 17 16 16 16 15 14 13 14 17 20 21 20 20 21 19 17 14 10 9 10 12 12 10 11 15 20 21 20 18 16 16 17 17 16 15 15 15 16 18 18 16 15 17 17 16 17 15 14 17 20 20 18 18 18 18 17 17 16 16 15 16 16 13 8 8 6 2 5 4 3
20 19 19 19 19 19 19 19 19 19 19 19 18 18 17 16 16 17 17 17 16 14 14 16 18 21 22 23 25 25 23 19 15 11 11 9 9 9 10 14 20 21 20 19 16 14 15 15 15 15 15 17 18 19 19 16 14 16 17 16 17 17 16 16 19 20 20 21 20 19 18 17 16 15 14 13 12 9 7 8 7 2 1 1 2
19 19 19 19 19 19 19 18 18 18 19 19 19 19 18 17 17 17 16 17 17 17 16 15 16 20 21 22 26 30 27 22 19 16 12 9 8 10 11 13 16 17 18 18 16 14 14 14 16 18 19 20 20 20 20 18 15 14 13 15 19 21 20 20 21 21 20 20 18 17 16 15 14 13 12 11 9 8 6 6 6 5 5 5 2
19 19 19 19 18 18 18 17 16 16 17 18 18 18 17 18 18 17 16 16 17 18 18 17 15 17 21 24 29 32 29 25 23 19 15 12 9 11 12 13 13 15 18 18 16 15 14 15 18 20 20 21 20 20 20 20 16 11 10 14 19 23 24 24 22 19 17 16 14 13 12 12 12 11 10 9 8 7 6 5 5 6 7 8 7
19 19 19 18 18 17 18 18 17 16 17 18 18 18 17 18 18 18 17 17 17 17 18 17 16 17 22 27 30 30 30 29 26 22 19 17 15 13 12 11 11 13 17 17 15 14 15 16 16 17 19 20 20 18 16 15 12 11 12 17 20 22 23 22 19 17 15 14 13 12 11 10 10 10 9 8 8 7 7 7 7 6 7 8 9
19 20 19 19 18 18 18 20 20 19 18 19 19 19 18 17 18 18 18 18 18 18 17 17 18 20 21 24 26 28 30 31 30 27 24 21 19 16 13 11 11 13 16 16 15 15 17 17 15 14 14 15 15 14 11 11 12 15 19 21 20 19 17 16 14 14 14 13 12 11 10 9 9 9 9 8 8 9 9 9 9 9 9 9 10
18 19 20 20 20 19 18 19 21 20 19 19 19 20 19 18 18 18 18 17 17 18 18 18 19 21 21 22 23 26 30 31 30 29 27 24 22 19 17 15 14 15 18 21 20 20 20 19 17 16 15 14 14 14 15 17 19 20 20 19 16 12 10 10 11 12 11 10 10 10 10 9 9 9 9 9 9 9 9 9 9 10 10 11 10
17 18 19 19 19 20 20 19 20 21 20 19 19 19 20 19 19 18 18 18 17 17 17 18 18 20 21 21 20 23 28 30 29 27 26 26 26 24 23 22 21 21 22 23 22 21 20 19 19 19 19 18 19 20 21 22 22 20 18 15 12 9 7 7 8 9 10 10 10 10 10 9 10 10 9 8 8 7 7 8 8 9 9 9 9
16 17 17 17 18 19 20 19 19 21 21 20 20 20 19 20 21 21 19 18 17 17 17 17 17 17 18 18 19 22 27 29 28 26 25 25 25 25 25 25 24 24 24 22 21 21 21 20 21 21 21 22 23 23 23 22 19 16 14 12 11 11 10 10 10 10 11 11 11 11 10 10 10 9 9 8 8 7 6 6 7 7 7 7 8
15 16 16 17 17 18 18 18 18 19 19 19 20 20 20 19 20 21 21 20 18 17 17 17 17 15 15 15 16 19 24 27 27 26 25 25 24 24 23 23 23 22 22 21 20 21 21 21 22 22 22 22 23 23 21 19 17 16 14 13 12 11 11 11 12 12 11 10 11 10 10 9 9 8 8 8 8 7 6 6 6 6 6 6 6
15 16 16 16 16 16 17 18 18 18 18 17 17 19 21 21 19 18 20 21 21 19 18 18 18 17 16 16 16 17 19 22 23 23 24 24 23 23 23 21 20 20 18 17 17 18 19 19 20 21 20 21 22 21 19 17 17 16 16 14 12 11 11 11 12 12 11 10 10 9 8 9 8 8 8 8 8 7 7 6 6 6 5 5 5
16 16 16 16 15 15 16 17 17 17 17 16 14 15 18 21 21 19 18 18 19 20 20 19 19 18 19 19 18 18 18 19 19 19 20 21 21 20 20 18 17 16 14 12 13 15 16 17 19 19 19 20 20 18 17 17 16 15 15 14 12 11 11 12 12 11 11 10 10 9 8 8 8 8 8 8 8 8 7 7 6 6 6 6 6
16 16 16 15 14 14 15 15 15 15 16 16 15 13 13 16 20 21 21 19 18 18 19 19 19 20 19 18 18 17 17 17 16 16 17 18 19 19 18 17 16 14 11 10 12 13 14 15 17 17 17 18 18 17 16 17 16 14 14 13 12 12 12 12 12 12 12 11 10 9 8 8 8 8 8 8 8 7 7 6 6 6 6 6 6
16 16 15 15 15 15 15 14 14 14 14 15 15 15 14 14 15 17 20 21 20 19 19 19 19 19 18 17 15 14 14 14 14 14 15 16 17 17 18 17 16 14 10 10 12 13 13 13 14 15 16 16 16 16 16 15 14 12 12 12 12 12 12 12 12 12 12 11 10 9 9 8 8 8 8 7 7 7 7 7 7 7 7 7 6
15 15 15 15 15 15 15 15 14 14 13 13 14 14 15 14 13 13 15 17 19 20 20 20 19 19 18 17 15 13 11 10 10 10 11 12 13 13 14 14 14 12 11 11 13 13 13 12 12 12 14 16 15 15 15 15 14 13 13 12 12 12 12 12 13 14 13 11 10 9 8 8 8 8 8 8 7 7 7 7 7 7 6 6 6
14 14 14 15 15 16 16 16 15 14 13 12 13 13 13 13 13 13 13 13 14 16 18 20 20 20 19 18 16 14 12 10 8 7 7 9 10 10 11 11 11 11 11 12 13 13 13 13 12 13 14 15 14 15 16 17 16 16 15 14 13 12 12 12 13 13 12 10 9 8 7 7 7 7 7 7 7 8 8 7 7 7 6 5 5
14 13 13 14 15 16 17 17 16 15 14 12 11 11 11 11 11 12 13 13 13 14 14 15 17 19 19 19 17 15 14 11 9 8 7 7 8 9 9 10 11 11 11 11 13 13 14 14 13 13 14 14 14 15 16 15 14 14 14 13 12 11 11 11 11 11 10 9 9 8 7 7 7 7 7 8 8 8 8 8 7 7 6 6 6
13 13 13 13 14 14 15 16 17 16 14 13 12 11 10 10 10 10 10 11 12 13 13 12 12 14 16 18 17 16 15 12 10 8 7 6 7 7 8 9 10 9 9 9 10 12 12 12 10 10 11 14 14 13 12 11 11 11 12 12 11 10 10 10 9 9 9 9 8 7 7 7 7 7 8 8 8 8 9 9 8 8 6 5 5
12 13 12 12 12 12 13 14 15 14 14 15 14 13 11 10 9 9 9 10 11 11 12 11 10 10 13 16 16 15 14 13 12 11 10 9 7 7 8 9 8 7 7 8 8 9 10 9 9 9 11 14 13 11 10 10 10 10 10 9 9 9 9 9 8 8 8 8 8 7 7 7 6 6 7 7 7 8 8 8 8 8 6 4 3
11 12 11 9 10 11 12 13 13 14 15 16 16 15 13 11 10 9 9 9 9 9 10 11 10 10 12 14 15 13 12 12 11 10 10 9 7 6 6 7 7 7 7 7 7 8 9 8 9 10 12 12 11 10 10 9 9 10 10 11 12 12 11 10 8 7 7 7 7 6 6 6 6 7 7 7 7 7 7 6 6 7 6 5 5
10 11 11 9 8 9 11 12 12 13 14 15 16 16 15 14 13 11 9 9 9 10 10 9 9 10 11 13 14 13 12 11 10 8 8 7 5 4 5 6 6 7 7 7 7 7 8 7 9 11 12 11 10 9 9 9 9 9 10 10 10 9 8 7 6 6 6 6 6 6 6 6 6 7 7 8 8 8 7 7 6 6 6 6 5
9 10 10 10 8 8 9 10 11 12 13 14 15 16 16 15 15 13 11 9 9 10 10 9 9 9 10 13 14 13 12 11 10 9 7 6 5 4 5 6 6 7 7 7 7 8 8 8 9 10 11 10 9 8 8 8 8 7 7 7 6 6 5 6 6 6 6 6 6 6 6 6 6 7 7 7 7 7 7 6 6 6 5 5 4
9 9 9 9 9 9 8 9 10 10 11 12 14 15 15 15 15 14 13 11 10 10 9 8 7 7 10 13 13 12 11 11 10 8 8 7 5 5 5 6 6 6 7 7 7 8 8 8 8 8 8 7 7 7 8 7 7 7 7 7 6 6 6 6 6 6 6 6 6 6 6 6 7 7 7 6 6 5 5 5 5 5 5 4 4
9 9 9 9 9 9 9 9 9 10 10 11 12 13 13 14 14 14 13 11 10 10 9 6 5 6 9 13 13 11 11 11 9 7 7 6 5 5 5 6 5 5 6 7 7 7 8 8 8 8 8 7 7 7 7 6 6 6 6 6 6 6 6 6 5 5 5 6 6 6 7 7 7 7 6 5 5 5 5 5 5 4 4 4 4
8 8 8 8 8 8 9 9 10 10 11 10 10 10 12 13 13 13 13 11 10 9 8 6 5 5 8 11 11 11 11 11 9 8 7 6 5 5 5 5 5 5 6 7 7 7 7 8 7 8 8 7 7 6 6 5 5 5 5 5 5 5 5 5 4 4 4 5 5 5 5 4 5 5 5 5 5 5 5 5 5 4 4 4 5
7 8 7 7 7 7 8 9 9 10 10 10 9 9 11 12 12 12 12 12 11 10 8 7 6 5 7 9 10 11 11 11 9 8 7 6 5 4 4 5 5 5 6 6 6 6 7 7 7 7 7 6 6 6 6 5 5 4 4 4 4 4 4 4 3 3 4 4 5 4 3 3 4 5 4 3 3 4 4 5 5 5 4 4 5
7 7 7 7 7 7 8 8 9 9 9 9 9 9 10 11 11 11 11 11 12 11 9 8 6 6 6 8 9 10 11 10 9 7 7 6 6 5 4 4 5 5 6 6 6 6 6 6 6 6 6 5 5 4 5 5 5 4 4 4 3 3 4 4 4 4 4 4 3 3 3 3 3 3 3 3 3 3 3 4 4 4 4 4 5
6 6 7 7 7 7 7 8 9 9 9 10 10 10 10 11 11 11 11 11 11 11 10 8 7 6 5 5 6 7 9 9 8 7 6 5 5 5 4 5 5 5 5 5 5 6 6 5 5 5 5 5 5 4 4 4 4 5 5 4 3 3 4 5 4 4 5 4 2 2 3 3 2 1 1 1 2 2 2 2 3 3 3 3 3
6 6 6 6 6 6 6 7 8 8 9 9 9 10 10 11 12 11 10 9 9 10 10 8 7 7 5 4 4 5 6 7 7 7 5 4 4 4 4 5 5 5 5 5 5 5 5 5 5 5 5 5 4 4 3 3 3 4 3 3 3 4 5 6 5 4 5 5 3 1 2 2 2 2 2 1 1 1 1 1 2 2 1 1 2
6 6 6 6 6 6 6 7 8 8 8 8 9 9 10 10 11 11 10 10 11 10 9 7 7 6 5 4 4 4 4 4 5 5 5 4 3 2 4 4 5 5 5 5 5 5 5 4 4 4 4 3 3 3 3 3 3 3 3 3 4 5 6 7 6 5 5 5 4 1 0 1 1 1 1 1 2 2 1 1 1 1 0 0 2
6 7 7 6 6 6 7 7 8 9 9 9 10 10 10 10 10 10 11 11 12 10 8 7 7 7 6 5 5 4 3 3 3 4 4 3 2 2 3 4 5 5 4 4 4 4 4 4 4 4 3 3 3 3 3 3 3 4 4 5 6 7 7 7 7 6 5 4 2 2 2 1 1 1 1 0 1 1 1 1 1 1 1 0 1
6 6 7 7 7 7 7 7 8 9 9 9 10 11 10 10 10 10 10 11 11 9 7 6 7 8 7 6 5 5 4 3 3 3 3 2 2 2 3 4 5 5 4 4 4 4 4 4 4 4 4 4 3 3 3 3 4 4 5 6 7 8 8 8 8 7 6 4 2 2 2 1 1 1 1 1 1 2 2 2 3 3 3 1 1
5 6 6 7 7 6 7 7 8 8 9 9 10 10 10 10 9 9 9 10 10 9 8 7 7 7 7 6 6 5 4 4 3 3 2 1 1 2 4 5 6 5 5 4 4 4 4 4 3 3 3 4 4 3 3 3 4 5 6 7 8 9 8 8 7 6 5 5 3 2 2 2 2 2 2 2 2 3 4 4 4 4 4 3 1
Wind_Direction
349 347 344 341 338 335 329 321 314 308 306 304 295 286 279 275 275 275 270 262 251 240 231 227 228 229 227 226 229 231 229 226 225 221 217 213 212 209 207 208 212 216 216 211 208 208 209 210 209 207 210 217 213 202 201 205 204 207 209 207 209 209 207 216 214 177 162 183 190 184 182 182 186 193 190 183 188 191 188 191 204 205 196 200 209
348 346 343 342 340 336 331 325 321 315 311 308 303 297 289 281 276 275 271 264 254 248 242 237 234 232 231 229 228 227 225 223 222 219 214 212 212 211 209 209 211 212 211 207 205 204 205 209 209 206 210 217 214 203 201 204 203 206 208 206 208 206 203 212 212 179 164 180 186 180 179 184 190 193 192 187 184 188 191 194 199 199 197 198 206
346 344 342 341 340 337 335 332 328 324 318 312 306 301 293 285 279 274 272 269 261 255 252 249 244 238 234 232 229 226 223 219 216 215 213 210 208 207 207 208 209 209 208 206 203 203 203 203 204 205 207 216 216 205 199 204 206 207 207 206 207 207 204 210 214 197 182 181 184 182 182 190 195 193 192 190 186 189 195 197 198 199 201 202 203
347 346 343 341 341 339 338 335 333 329 323 314 306 299 293 287 281 277 274 270 265 260 256 252 248 242 238 237 234 229 223 218 214 212 212 210 207 205 206 208 209 208 207 204 201 202 203 201 201 203 204 211 217 209 200 203 207 207 207 205 205 206 204 206 212 211 197 183 186 190 186 189 195 191 188 189 190 193 196 197 199 201 203 205 204
349 347 343 341 342 342 340 338 334 330 325 319 310 301 295 287 280 276 271 266 263 261 257 248 242 242 241 239 238 233 225 221 219 214 211 210 209 208 208 209 210 209 207 203 198 199 203 201 199 201 202 208 215 211 201 201 205 205 204 204 204 203 202 203 205 209 202 188 186 191 186 185 190 191 188 188 189 193 198 199 200 202 203 206 205
351 348 345 343 342 343 343 340 336 332 328 323 317 308 300 291 284 278 271 266 264 262 261 253 243 242 243 241 241 238 230 225 222 217 213 210 209 210 210 209 210 209 204 200 196 198 202 200 197 200 204 209 212 209 202 201 203 203 203 204 204 202 200 201 201 203 204 194 185 183 183 184 186 188 191 191 190 192 196 199 202 204 203 204 205
352 351 349 347 345 345 344 341 337 336 332 328 323 315 307 298 291 286 279 274 270 265 264 259 249 243 243 241 240 239 234 226 222 219 214 209 207 208 208 209 209 205 201 198 195 196 201 200 198 200 204 210 211 207 202 200 200 201 202 203 205 206 204 203 201 199 198 195 189 185 185 185 185 188 191 193 195 197 196 197 201 204 204 207 209
355 354 353 353 351 347 345 343 340 338 336 335 332 327 321 313 304 294 286 282 277 270 264 259 252 246 243 242 241 240 235 228 223 221 216 211 208 205 204 205 202 197 197 196 193 196 200 200 201 203 204 212 215 209 199 196 198 200 200 202 207 208 209 208 202 194 188 188 192 191 186 184 186 190 189 190 197 203 203 203 204 203 203 208 211
2 1 359 357 354 350 347 346 345 343 343 342 342 339 336 333 328 318 306 297 290 280 269 261 255 250 246 244 243 241 237 231 226 224 217 209 205 203 201 199 194 191 192 191 190 195 198 200 204 204 202 215 224 215 199 197 200 201 198 201 206 207 212 214 203 189 186 189 194 198 195 189 187 187 184 187 198 204 204 207 210 207 202 204 209
5 4 2 359 355 352 350 349 349 349 349 348 347 345 343 342 339 334 327 319 312 302 289 275 263 256 252 248 244 242 238 232 227 223 215 205 200 198 196 193 189 184 184 186 186 190 195 199 204 205 204 215 225 220 209 205 206 206 200 198 203 206 211 214 207 197 191 194 202 206 203 196 190 188 187 190 198 201 200 203 207 207 201 202 205
5 5 3 360 357 356 354 353 353 354 354 352 351 350 348 346 341 337 334 328 323 318 308 293 278 266 258 253 248 244 240 234 227 222 215 207 200 194 191 189 185 182 182 183 183 186 193 194 197 206 208 213 220 221 216 209 209 212 204 198 203 210 212 216 219 213 200 198 205 207 205 199 190 186 190 190 192 198 198 198 203 205 204 208 205
3 4 3 0 359 359 358 357 357 358 359 358 356 354 352 350 347 343 340 337 333 328 317 306 294 278 267 260 254 250 246 240 230 222 214 205 197 191 187 182 179 181 182 179 178 184 191 190 188 197 203 203 213 218 212 206 209 212 208 205 207 209 211 216 227 228 220 219 213 195 192 199 191 183 183 175 172 188 199 200 204 201 202 212 211
4 4 4 2 1 0 359 0 360 360 1 2 0 359 358 356 353 347 343 342 343 339 329 316 302 287 277 267 260 257 254 246 233 225 217 205 196 191 184 178 178 180 179 177 178 181 185 183 177 177 188 193 198 206 204 202 204 205 206 211 213 211 214 217 221 229 239 259 234 171 172 195 191 174 168 160 157 169 184 203 214 208 205 214 211
8 7 5 4 2 0 360 2 3 2 3 3 4 4 2 359 355 352 349 347 348 349 347 338 320 302 286 274 270 265 256 248 239 230 221 210 200 192 182 178 179 178 176 176 176 175 175 172 165 167 183 191 189 190 194 194 194 191 191 197 203 210 217 218 223 234 236 240 229 187 188 203 188 164 163 165 166 167 163 179 236 227 210 198 176
10 8 6 5 3 1 1 2 4 6 6 6 7 7 5 2 359 356 354 354 355 356 357 358 351 334 310 291 281 268 254 248 243 234 224 214 204 193 183 178 176 172 172 171 167 169 173 168 165 171 177 180 184 185 182 180 177 170 163 163 179 197 207 202 205 224 229 223 211 186 184 188 183 178 181 180 169 161 164 182 227 225 198 170 153
10 10 8 7 5 4 3 3 5 7 8 9 11 10 8 7 3 360 358 1 5 8 10 11 9 2 353 327 281 267 262 251 239 230 222 214 203 191 182 174 168 165 165 164 163 164 165 164 170 177 176 176 184 184 175 169 168 164 158 157 177 196 205 200 191 187 193 199 200 193 191 192 196 199 199 196 188 174 179 194 208 210 194 176 170
10 10 10 9 8 7 6 6 7 9 10 12 12 12 11 10 8 6 6 8 13 20 24 24 23 24 26 34 50 35 328 257 232 223 214 205 193 189 188 179 169 163 159 161 168 170 164 162 169 178 184 187 189 183 173 163 159 157 150 139 139 150 161 171 178 182 186 191 194 194 192 190 186 181 177 183 183 181 193 199 198 203 201 196 191
10 11 11 10 9 9 9 10 10 11 13 14 13 13 14 13 12 11 12 14 18 26 34 38 40 39 35 41 54 60 60 75 148 181 185 182 172 179 195 182 166 161 157 156 166 170 166 163 167 180 192 191 183 180 174 160 151 150 144 131 123 120 123 131 136 142 151 154 150 148 148 146 146 149 148 154 162 167 181 186 183 215 229 228 215
13 12 13 12 12 11 12 13 15 16 17 18 16 16 15 14 15 16 15 15 14 21 34 41 45 44 39 45 56 58 59 66 81 114 140 157 163 178 196 170 150 151 154 150 150 156 160 163 169 180 186 178 170 170 168 158 153 153 147 135 127 126 128 129 126 126 127 128 126 126 129 130 133 139 141 150 162 170 173 161 152 250 255 225 213
16 15 16 16 16 17 17 18 21 22 23 24 23 22 18 16 20 23 22 18 15 18 26 36 45 46 41 43 51 55 56 58 60 81 107 127 149 166 172 153 141 141 143 139 135 139 147 157 165 168 166 160 159 162 162 158 156 154 149 140 136 138 140 136 133 133 132 131 129 126 124 127 131 134 138 147 159 165 167 160 151 117 32 133 210
19 20 22 22 22 22 23 23 24 24 25 26 26 26 24 22 25 29 28 24 21 20 23 28 41 49 46 41 47 53 55 54 54 64 79 92 126 143 134 127 133 136 133 131 132 133 133 139 147 151 154 155 157 162 161 155 149 148 151 150 148 148 147 142 138 135 130 126 123 118 114 117 120 122 125 128 132 136 144 157 159 141 102 73 55
23 24 26 28 27 25 23 22 22 19 19 20 22 24 25 23 24 27 28 29 27 23 23 22 27 43 50 46 48 52 53 52 53 56 61 69 94 115 109 108 126 134 127 121 123 128 129 130 136 145 153 156 157 161 160 156 155 159 170 171 163 156 150 143 135 127 119 115 113 108 104 104 103 101 100 100 105 112 110 111 132 143 124 93 70
27 29 29 30 30 26 25 28 29 22 18 21 22 23 25 23 23 23 24 28 31 28 25 21 19 31 45 49 51 54 54 53 55 56 55 56 60 71 91 113 131 129 117 108 107 116 125 127 133 144 152 154 156 159 161 166 172 171 165 162 157 149 143 137 130 122 116 112 106 101 99 99 98 95 93 93 96 98 94 91 92 99 115 110 93
29 31 32 33 31 28 28 32 34 28 22 24 26 26 25 24 23 24 23 24 28 29 27 26 24 27 36 43 49 55 57 57 57 55 54 54 56 63 82 105 116 117 109 100 97 105 114 117 123 137 146 149 153 156 155 154 154 150 146 142 136 132 131 127 123 123 120 113 105 100 99 101 102 101 100 100 102 99 95 93 90 86 91 97 94
29 30 32 34 32 30 30 30 30 27 24 25 27 26 24 24 21 21 23 23 24 25 26 28 33 34 35 37 43 54 62 64 63 62 62 65 68 73 80 87 93 99 99 97 97 101 106 109 113 119 124 128 132 134 130 129 129 130 132 128 121 122 132 132 130 127 121 114 111 107 103 100 99 100 101 102 103 101 100 99 100 101 101 98 94
31 30 30 31 31 30 31 30 29 29 27 27 28 28 27 28 24 21 21 22 23 24 24 27 33 39 41 41 41 50 60 66 68 70 72 74 75 77 81 83 86 90 92 95 98 101 103 107 109 111 115 119 121 121 121 125 127 124 121 116 106 104 111 113 114 115 111 107 105 104 101 99 97 96 98 102 105 108 113 118 117 116 118 114 107
31 31 30 30 29 29 30 30 31 33 33 31 32 32 32 32 30 27 22 21 22 24 25 27 30 34 39 41 42 47 54 60 64 67 71 74 77 80 83 85 88 90 92 95 99 101 103 106 108 112 114 116 117 116 117 122 125 120 113 111 108 106 105 104 101 99 99 101 102 101 102 102 101 100 101 104 106 106 113 124 125 125 127 125 119
30 31 31 31 31 30 30 30 30 34 37 37 37 36 35 35 36 33 28 26 27 29 29 30 31 31 33 36 41 46 49 53 58 63 67 71 73 75 78 81 85 89 92 96 99 102 104 105 107 110 112 112 111 110 110 112 110 102 95 91 91 94 100 103 100 93 90 95 99 100 103 104 103 104 105 103 101 100 103 110 113 118 127 129 126
32 32 32 31 31 32 33 33 32 33 36 41 46 45 40 38 40 39 35 34 37 40 40 38 36 39 43 45 47 49 49 51 57 64 68 71 73 72 70 70 72 77 82 88 95 100 102 101 100 100 100 102 103 102 100 98 95 92 89 80 71 72 79 83 85 85 86 90 94 96 101 104 103 103 102 98 93 90 90 94 98 104 112 117 116
33 34 34 31 28 28 32 33 33 33 33 36 46 53 48 42 40 40 39 39 41 44 46 45 44 47 52 56 59 61 61 62 64 65 65 66 66 66 65 63 62 63 64 69 79 85 88 89 89 90 91 93 93 93 93 93 89 85 83 77 70 71 76 77 78 81 83 84 86 87 91 95 98 100 99 96 93 90 87 89 96 102 106 108 106
32 32 34 31 24 24 29 31 31 32 33 33 35 44 51 48 43 40 40 41 44 46 46 46 47 49 53 60 68 71 73 73 71 66 62 60 59 60 60 59 57 57 59 69 77 79 82 84 86 88 91 91 89 87 87 88 85 81 81 79 71 69 73 73 74 76 78 79 79 79 81 86 89 90 90 91 94 94 91 90 92 93 92 92 92
32 29 30 31 29 26 28 30 29 30 34 35 32 34 39 44 45 45 44 43 45 48 48 46 44 44 47 53 62 72 79 80 76 71 66 60 59 60 60 58 58 57 64 85 92 90 92 94 93 94 97 96 93 91 89 85 80 78 80 78 72 71 77 81 81 78 75 74 75 75 76 81 85 87 88 90 93 93 91 90 90 87 85 86 86
35 31 27 28 30 28 26 26 27 27 29 32 32 32 33 33 35 41 45 44 44 47 48 46 44 44 45 45 45 49 60 68 73 75 69 61 60 61 61 63 64 61 66 90 104 104 104 102 98 99 104 105 103 101 100 98 95 92 88 83 79 77 81 87 90 87 80 76 76 77 80 84 89 91 90 87 86 87 86 87 90 92 95 96 96
39 40 33 28 30 30 28 24 22 21 22 25 27 29 32 31 29 30 34 37 38 41 43 42 43 44 46 46 44 40 39 43 51 58 57 56 60 63 63 69 73 72 77 96 109 113 112 109 106 106 108 109 108 108 108 107 106 102 97 91 86 80 77 79 83 82 79 79 79 79 81 87 91 93 93 92 93 92 89 87 88 91 93 94 93
37 42 37 31 30 31 31 28 24 21 19 19 20 22 24 27 28 30 31 30 30 33 35 35 37 39 39 41 41 39 35 34 41 48 50 48 52 57 67 78 84 85 90 101 110 114 114 113 111 110 111 110 109 109 106 102 101 100 98 94 89 83 79 78 78 78 80 83 83 82 81 83 85 88 91 91 91 91 90 87 86 87 87 85 82
31 32 32 31 30 30 30 29 27 23 20 18 17 14 13 17 23 27 29 28 26 27 28 28 32 38 37 32 28 28 27 25 25 29 30 27 35 56 78 87 89 89 93 102 110 112 112 111 108 107 110 112 110 105 97 90 91 96 97 95 91 88 87 85 84 86 88 88 87 87 86 86 90 94 96 95 91 90 90 85 81 79 77 75 78
28 26 24 23 22 25 28 27 25 23 21 21 21 17 10 11 14 16 20 23 20 17 19 20 22 30 32 24 16 13 16 17 17 14 10 12 31 65 85 89 91 96 99 104 109 110 110 110 108 108 113 116 111 100 91 89 89 89 89 91 95 101 104 102 96 95 97 96 94 93 91 91 91 92 95 97 95 94 95 94 92 87 75 57 67
29 26 20 13 12 17 22 23 22 22 21 23 25 22 15 9 7 7 10 14 12 8 11 15 17 21 23 16 8 3 4 9 13 11 6 13 35 66 85 90 95 102 106 108 111 111 109 110 112 114 115 115 110 99 93 92 89 88 94 101 103 104 108 108 103 102 105 107 105 102 99 95 91 88 90 91 91 90 90 90 91 92 83 66 64
25 24 21 16 9 8 12 15 17 17 18 19 22 23 19 14 12 9 5 4 5 3 2 7 19 26 20 9 3 0 2 6 11 10 8 18 32 53 81 95 100 105 110 113 113 112 111 113 119 122 120 116 110 104 101 99 97 97 103 108 108 105 106 109 108 108 109 107 104 99 93 87 85 87 88 89 90 90 86 78 70 70 74 74 71
13 14 17 14 5 358 360 4 8 11 12 14 15 17 18 17 16 13 7 4 5 2 359 9 27 31 20 12 10 8 7 10 13 14 17 26 36 53 83 100 105 108 113 116 117 118 116 116 121 126 124 117 112 110 109 108 107 108 111 116 116 113 111 110 107 103 99 97 96 93 87 83 83 86 86 87 90 90 87 85 80 72 66 65 64
2 2 6 5 359 351 348 353 1 3 2 5 8 10 12 14 15 15 12 8 5 2 5 23 40 32 17 17 20 19 15 16 18 20 24 32 44 62 87 102 105 108 114 118 120 124 126 124 126 129 128 122 119 120 120 118 115 115 118 119 116 111 106 104 101 96 94 95 94 89 83 81 83 85 84 86 86 82 78 79 78 71 63 53 49
353 355 357 356 354 351 345 346 351 351 352 358 1 1 2 6 11 14 15 11 6 4 9 26 46 32 17 19 25 24 20 20 26 29 30 35 46 63 85 99 101 107 119 121 120 126 130 131 133 137 136 134 133 132 131 130 127 126 124 121 118 118 116 112 109 103 97 96 95 91 88 88 88 85 80 78 77 74 69 66 60 59 61 56 43
345 348 351 350 352 352 348 344 345 348 350 351 349 346 350 356 2 8 12 13 10 6 5 9 21 19 11 12 17 19 19 23 32 38 37 40 50 65 89 102 102 111 123 124 122 125 128 129 133 138 139 139 141 143 146 146 139 137 135 126 119 122 125 123 123 117 107 105 107 100 89 85 87 82 71 68 75 75 69 58 45 39 49 60 57
343 346 348 347 348 350 347 343 346 349 348 342 336 337 343 349 354 359 4 9 9 5 1 360 1 359 358 2 7 13 17 23 32 40 45 51 58 69 92 107 109 118 127 127 125 127 128 130 135 138 141 144 147 151 157 155 143 139 144 138 128 128 130 131 131 122 108 108 111 106 93 91 103 101 86 76 85 87 77 63 47 34 39 60 65
348 349 349 347 346 349 346 341 341 342 341 340 342 344 344 347 352 354 356 359 360 357 356 356 352 345 351 2 7 10 13 19 28 37 48 60 68 79 100 116 122 128 130 129 130 132 134 137 141 141 144 147 146 147 157 164 162 159 158 150 139 138 141 142 140 132 125 120 115 120 125 118 100 89 80 74 81 81 71 67 62 49 46 63 73
353 350 351 351 347 347 348 345 342 339 336 338 344 346 345 348 352 352 352 352 348 343 345 352 352 343 342 353 3 4 8 17 26 32 41 57 71 83 101 119 132 139 138 136 136 137 137 141 148 150 149 149 149 150 155 164 173 175 172 167 165 165 166 166 158 146 148 151 139 113 123 119 94 75 74 57 59 73 71 63 61 51 41 50 70
354 348 349 350 346 345 350 352 347 341 339 341 344 344 343 346 349 349 349 346 339 333 335 346 355 354 347 344 351 359 4 13 24 31 37 51 71 90 107 118 129 140 144 144 145 145 145 148 153 156 158 163 172 174 171 177 189 187 178 175 179 179 178 175 168 160 164 173 175 74 59 86 112 131 142 331 347 54 95 91 81 77 58 33 37
357 350 346 344 338 337 343 344 340 338 340 344 343 339 338 340 343 344 344 345 342 338 337 343 354 0 357 348 342 342 346 359 15 26 34 45 66 104 124 130 136 141 145 151 154 154 155 160 162 163 169 180 187 185 182 190 190 181 176 187 191 189 184 179 175 171 171 174 179 188 1 356 6 91 98 356 344 10 8 346 25 70 154 61 36
357 351 346 342 335 330 331 332 330 330 333 336 336 335 336 337 337 338 342 346 347 345 342 344 350 356 358 354 347 335 322 326 343 0 21 43 67 119 150 153 154 155 158 165 167 164 167 172 170 164 164 172 175 173 175 173 163 160 174 190 191 186 182 180 180 181 175 170 187 249 242 242 273 261 156 178 306 321 324 306 292 301 299 6 46
355 351 349 347 340 334 332 330 327 327 330 331 329 329 331 332 333 336 341 345 348 349 345 341 344 348 350 348 342 331 315 305 311 324 350 33 69 135 169 172 171 171 175 178 175 172 175 181 179 171 167 168 167 163 160 160 162 172 186 191 186 183 182 182 182 184 183 178 199 259 249 237 254 249 228 231 257 266 275 273 270 274 275 246 104
341 346 351 351 347 343 341 338 333 331 332 331 326 324 326 329 332 334 336 341 347 350 344 334 334 339 339 337 336 330 312 298 294 291 292 332 94 146 170 179 182 185 187 188 185 181 178 180 181 179 176 174 167 154 150 169 185 187 186 185 185 187 190 190 191 197 201 199 202 230 244 234 236 255 268 281 285 281 281 276 263 261 265 259 208